[[{"header":{"parameterUnit":"m.s-1","parameterCategory":1,"la1":30.2991,"la2":30.254,"lo1":-89.0895,"lo2":-89.0444,"dy":0.0017,"dx":0.0017,"nx":28,"ny":28,"refTime":"2025-05-31T03:00:00:Z","depth":0,"parameterNumber":2,"parameterNumberName":"U-component_of_WINDS"},"data":[0,0,0,0,0,0,0,0,0,0,0,0,0,0,0,0,0,0,0,0,0,0,0,0,0,0,0,0,0,0,0,0,0,0,0,0,0,0,0,0,0,0,0,0,0,0,0,0,0,0,0,0,0,0,0,0,0,0,1.5497,1.5498,0,1.5603,1.5604,1.5605,1.5599,1.5597,1.5596,1.5594,1.5708,1.5713,1.5717,0,0,0,0,0,0,0,0,0,0,0,0,0,1.5296,1.53,1.5497,1.5498,1.55,1.5602,1.5604,1.5605,1.5599,1.5597,1.5596,1.5594,1.5707,1.5712,1.5718,0,0,0,0,0,0,0,0,0,0,0,0,0,1.5391,1.5301,1.5497,1.5509,1.5511,1.5602,1.5604,1.5606,1.56,1.5597,1.5595,1.5593,1.5705,1.5712,1.5718,1.5806,0,0,1.5739,1.5742,0,0,0,0,0,0,0,0,1.5385,1.5398,1.5506,1.5508,1.5511,1.5585,1.5575,1.5673,1.56,1.5566,1.5594,1.5592,1.567,1.5679,1.5704,1.5811,1.5816,1.5739,1.5743,1.5746,1.5748,0,0,0,0,0,0,0,1.5379,1.5394,1.5539,1.5507,1.551,1.5511,1.5522,1.5593,1.563,1.5569,1.5569,1.5581,1.5671,1.5698,1.5707,1.5818,1.5739,1.5745,1.5749,1.5752,1.6005,1.6007,0,0,0,0,0,0,1.5369,1.5388,1.5536,1.5542,1.5441,1.5516,1.5529,1.5564,1.5629,1.5637,1.5583,1.558,1.5687,1.5699,1.5711,1.582,1.5746,1.5753,1.5756,1.6002,1.6005,1.6008,0,0,0,0,0,0,1.5364,1.5382,1.5531,1.5465,1.5484,1.5522,1.5562,1.5567,1.5594,1.5639,1.5646,1.5604,1.5686,1.5701,1.5783,1.5824,1.5756,1.5762,1.5999,1.6003,1.6007,1.6037,0,0,0,0,0,0,1.5359,1.538,1.5413,1.5466,1.5488,1.56,1.5564,1.5571,1.5605,1.5603,1.5661,1.5668,1.5685,1.5773,1.5789,1.5832,1.5767,1.5995,1.6001,1.6005,1.6033,1.6042,1.605,0,0,0,0,0,1.5352,1.5418,1.5415,1.5432,1.5529,1.5602,1.5615,1.5632,1.5608,1.5642,1.5672,1.5666,1.5816,1.5781,1.58,1.5845,1.5993,1.5999,1.6005,1.6029,1.604,1.6049,0,0,0,0,0,0,1.5371,1.5425,1.5422,1.5507,1.555,1.5601,1.5644,1.5642,1.5694,1.569,1.571,1.5724,1.5805,1.5833,1.5793,1.5934,1.5902,1.5912,1.5914,1.5924,1.5933,1.5926,1.5772,0,0,0,0,0,1.5385,1.5438,1.5483,1.5554,1.5576,1.5606,1.5639,1.5648,1.5694,1.5712,1.5747,1.5794,1.5851,1.5889,1.5944,1.6036,1.605,1.6076,1.6084,1.6091,1.6101,1.6154,1.6167,1.6028,1.6028,1.6028,0,0,1.5416,1.5451,1.5484,1.5559,1.5593,1.565,1.5622,1.5683,1.5726,1.5722,1.5801,1.5828,1.5881,1.5969,1.6009,1.5994,1.6142,1.6099,1.6104,1.611,1.6161,1.6174,1.6186,1.6032,1.6031,1.6031,0,0,1.55,1.5531,1.5595,1.5629,1.568,1.57,1.5715,1.5766,1.5784,1.5862,1.5862,1.5914,1.6012,1.605,1.6083,1.6181,1.6179,1.6198,1.6243,1.6295,1.6306,1.6315,1.6353,1.6366,1.6207,1.6207,1.6207,0,1.5532,1.5615,1.5628,1.569,1.5724,1.572,1.5787,1.582,1.5887,1.5912,1.5893,1.6017,1.6052,1.615,1.6174,1.6199,1.6219,1.6193,1.6302,1.6313,1.6322,1.6358,1.6372,1.6209,1.6209,1.6209,1.6208,0,1.5653,1.5711,1.5756,1.582,1.5859,1.5922,1.5947,1.5985,1.599,1.6012,1.6094,1.6136,1.62,1.6223,1.623,1.6322,1.6312,1.6298,1.6266,1.6337,1.6372,1.6386,1.6212,1.6212,1.6211,1.621,0,0,1.5756,1.5824,1.5841,1.587,1.5926,1.5972,1.6036,1.6097,1.6131,1.6177,1.6233,1.6315,1.6303,1.634,1.635,1.6395,1.6473,1.6375,1.6377,1.6395,1.6581,1.6593,1.6609,1.6471,1.6473,1.6475,1.6577,0,1.5848,1.5959,1.5973,1.6073,1.6128,1.6125,1.6181,1.6223,1.6245,1.6296,1.6322,1.6381,1.6358,1.6381,1.6424,1.6454,1.6511,1.6447,1.6526,1.6529,1.6516,1.6627,1.664,1.6734,1.6591,1.6593,1.6594,0,1.5972,1.602,1.6125,1.6173,1.6197,1.6247,1.6305,1.6353,1.64,1.6414,1.6454,1.6459,1.6527,1.649,1.6586,1.6542,1.6575,1.6595,1.6599,1.661,1.6568,1.6644,1.6764,1.678,1.6615,1.6614,1.6612,0,1.604,1.613,1.6205,1.623,1.6288,1.6323,1.635,1.6394,1.6431,1.6481,1.6506,1.6564,1.6597,1.6643,1.6665,1.6635,1.676,1.6725,1.6776,1.6776,1.6805,1.6804,1.6937,1.6821,1.6821,1.6821,1.682,0,1.6144,1.6209,1.6237,1.6283,1.6357,1.6371,1.6445,1.647,1.6509,1.6563,1.6563,1.6614,1.6637,1.6692,1.6709,1.6787,1.6801,1.6816,1.6821,1.6818,1.6817,1.6842,1.6838,1.6824,1.6824,1.6823,1.6822,0,1.6234,1.6254,1.6336,1.6383,1.6397,1.6449,1.6491,1.6537,1.6558,1.6625,1.6642,1.6676,1.674,1.6765,1.6843,1.6855,1.6947,1.6944,1.693,1.6932,1.6984,1.698,1.714,1.7163,1.703,1.7031,1.7032,0,1.63,1.635,1.6402,1.6436,1.6463,1.6519,1.6555,1.6571,1.661,1.6668,1.6708,1.6771,1.6823,1.6926,1.6959,1.702,1.7021,1.7073,1.703,1.7027,1.7026,1.7024,1.703,1.7082,1.7083,1.7084,1.7085,0,1.6418,1.6425,1.6476,1.6531,1.6574,1.6619,1.6663,1.6691,1.6714,1.6758,1.6822,1.6862,1.6942,1.7006,1.7068,1.7097,1.7097,1.7098,1.7113,1.7113,1.7104,1.7113,1.6955,1.7095,1.7094,1.7093,1.7093,1.7092,1.65,1.6545,1.6588,1.6646,1.668,1.672,1.6766,1.6792,1.6845,1.691,1.6916,1.6987,1.7034,1.7117,1.7149,1.7205,1.7192,1.7214,1.722,1.7227,1.7232,1.7092,1.7216,1.7216,1.7216,1.7216,1.7216,0,1.662,1.6647,1.67,1.676,1.6806,1.6796,1.6844,1.6884,1.6945,1.6988,1.7038,1.7113,1.7175,1.7212,1.7275,1.7313,1.7315,1.733,1.7329,1.7336,1.7238,1.722,1.7328,1.7328,1.7328,1.7328,1.7327,1.7327,1.6689,1.6764,1.6777,1.687,1.6897,1.6964,1.6993,1.7031,1.7065,1.7148,1.7199,1.7221,1.7263,1.7328,1.7386,1.7395,1.742,1.7437,1.7446,1.7354,1.7343,1.7332,1.7315,1.7441,1.7441,1.7539,1.754,1.7541]},{"header":{"parameterUnit":"m.s-1","parameterCategory":1,"la1":30.2991,"la2":30.254,"lo1":-89.0895,"lo2":-89.0444,"dy":0.0017,"dx":0.0017,"nx":28,"ny":28,"refTime":"2025-05-31T03:00:00:Z","depth":0,"parameterNumber":3,"parameterNumberName":"V-component_of_WINDS"},"data":[0,0,0,0,0,0,0,0,0,0,0,0,0,0,0,0,0,0,0,0,0,0,0,0,0,0,0,0,0,0,0,0,0,0,0,0,0,0,0,0,0,0,0,0,0,0,0,0,0,0,0,0,0,0,0,0,0,0,-1.0736,-1.0736,0,-1.077,-1.077,-1.0771,-1.0907,-1.091,-1.0913,-1.0916,-1.0943,-1.0941,-1.0939,0,0,0,0,0,0,0,0,0,0,0,0,0,-1.078,-1.0778,-1.0736,-1.0736,-1.0736,-1.077,-1.077,-1.0771,-1.0906,-1.091,-1.0914,-1.0917,-1.0944,-1.0941,-1.0939,0,0,0,0,0,0,0,0,0,0,0,0,0,-1.0782,-1.0778,-1.0735,-1.0808,-1.0815,-1.077,-1.077,-1.0771,-1.0905,-1.091,-1.0915,-1.0919,-1.0945,-1.0941,-1.0938,-1.0823,0,0,-1.0928,-1.0927,0,0,0,0,0,0,0,0,-1.0782,-1.078,-1.0797,-1.0803,-1.0811,-1.0839,-1.0796,-1.0788,-1.0904,-1.0871,-1.0916,-1.0922,-1.0904,-1.0904,-1.09,-1.0824,-1.0825,-1.0928,-1.0926,-1.0924,-1.0923,0,0,0,0,0,0,0,-1.0781,-1.0779,-1.0749,-1.0797,-1.0805,-1.0837,-1.0842,-1.0795,-1.086,-1.0874,-1.0884,-1.0887,-1.0909,-1.0903,-1.0902,-1.0826,-1.0928,-1.0925,-1.0923,-1.0921,-1.0656,-1.0651,0,0,0,0,0,0,-1.0772,-1.0778,-1.0748,-1.075,-1.0808,-1.0832,-1.0838,-1.0825,-1.0861,-1.0871,-1.0883,-1.0893,-1.0906,-1.0906,-1.0903,-1.0769,-1.0924,-1.0921,-1.0919,-1.0661,-1.0654,-1.0649,0,0,0,0,0,0,-1.0772,-1.0768,-1.0747,-1.0767,-1.0767,-1.0826,-1.081,-1.0823,-1.0818,-1.0868,-1.0879,-1.0865,-1.091,-1.0908,-1.0842,-1.0772,-1.092,-1.0917,-1.0667,-1.0659,-1.0652,-1.0501,0,0,0,0,0,0,-1.0773,-1.0767,-1.0726,-1.0765,-1.0765,-1.0686,-1.0806,-1.082,-1.0813,-1.0827,-1.0855,-1.0864,-1.0914,-1.0846,-1.0839,-1.077,-1.0914,-1.0673,-1.0663,-1.0654,-1.0512,-1.0489,-1.0469,0,0,0,0,0,-1.0774,-1.068,-1.0723,-1.0718,-1.0715,-1.0682,-1.0682,-1.0744,-1.0807,-1.0764,-1.0796,-1.0863,-1.0782,-1.0839,-1.0831,-1.076,-1.0678,-1.0666,-1.0655,-1.0522,-1.0493,-1.0469,0,0,0,0,0,0,-1.0628,-1.0687,-1.0734,-1.0651,-1.0661,-1.0705,-1.0653,-1.0712,-1.0702,-1.0715,-1.079,-1.0795,-1.0717,-1.0733,-1.0795,-1.065,-1.0741,-1.0727,-1.0642,-1.0616,-1.0595,-1.0591,-1.0911,0,0,0,0,0,-1.0587,-1.0558,-1.061,-1.0531,-1.0534,-1.0592,-1.0581,-1.0628,-1.064,-1.0644,-1.0671,-1.0678,-1.0654,-1.0636,-1.0617,-1.0516,-1.0523,-1.0464,-1.0442,-1.0425,-1.0411,-1.0356,-1.033,-1.0611,-1.0612,-1.0612,0,0,-1.05,-1.0528,-1.0505,-1.0503,-1.0516,-1.0481,-1.0595,-1.0554,-1.0529,-1.0637,-1.0576,-1.0597,-1.0609,-1.0525,-1.0489,-1.0535,-1.0335,-1.041,-1.0395,-1.0391,-1.0342,-1.0315,-1.0291,-1.0604,-1.0605,-1.0606,0,0,-1.0323,-1.0343,-1.0279,-1.0291,-1.031,-1.035,-1.0335,-1.037,-1.0389,-1.033,-1.041,-1.038,-1.0338,-1.0343,-1.034,-1.0167,-1.0226,-1.0158,-1.0044,-0.999,-0.9967,-0.9948,-0.9883,-0.9859,-1.0145,-1.0145,-1.0145,0,-1.0212,-1.0166,-1.0238,-1.0192,-1.0188,-1.0288,-1.0222,-1.0229,-1.0239,-1.0232,-1.0286,-1.0235,-1.025,-1.0167,-1.0125,-1.0121,-1.0102,-1.0154,-0.9966,-0.9947,-0.993,-0.9868,-0.9844,-1.0136,-1.0137,-1.0138,-1.0139,0,-1.0027,-0.9993,-0.9939,-0.9949,-0.9939,-0.9883,-0.9945,-0.9925,-0.9974,-1.0007,-0.9945,-0.9968,-0.9954,-0.9939,-0.9984,-0.9861,-0.9889,-0.9953,-1.0045,-0.9893,-0.9836,-0.9814,-1.0124,-1.0127,-1.013,-1.0132,0,0,-0.9756,-0.9809,-0.9787,-0.9793,-0.9822,-0.9796,-0.9745,-0.9734,-0.9714,-0.9719,-0.9675,-0.9638,-0.9697,-0.9693,-0.9741,-0.9694,-0.9551,-0.9763,-0.9765,-0.972,-0.9414,-0.9363,-0.9335,-0.9593,-0.9589,-0.9586,-0.9412,0,-0.9586,-0.9502,-0.9566,-0.9469,-0.9438,-0.9533,-0.9487,-0.9499,-0.9529,-0.9505,-0.9538,-0.9509,-0.9591,-0.9589,-0.9547,-0.9578,-0.949,-0.9592,-0.9549,-0.9546,-0.9539,-0.9306,-0.9253,-0.9087,-0.939,-0.9387,-0.9384,0,-0.9375,-0.9372,-0.9273,-0.9309,-0.9298,-0.9256,-0.9251,-0.9228,-0.9242,-0.9267,-0.9264,-0.9324,-0.9273,-0.9366,-0.9294,-0.9362,-0.9349,-0.9361,-0.9356,-0.9351,-0.9453,-0.9291,-0.9036,-0.9009,-0.9351,-0.9353,-0.9356,0,-0.9184,-0.9156,-0.9092,-0.9094,-0.9135,-0.9103,-0.9118,-0.9137,-0.9127,-0.9122,-0.9115,-0.9103,-0.9096,-0.9084,-0.9138,-0.9202,-0.9058,-0.9157,-0.9074,-0.9072,-0.9036,-0.9037,-0.8771,-0.9034,-0.9034,-0.9034,-0.9035,0,-0.8985,-0.8919,-0.9007,-0.8967,-0.8896,-0.897,-0.8897,-0.8922,-0.8938,-0.8903,-0.8985,-0.895,-0.9025,-0.8997,-0.9039,-0.8972,-0.8968,-0.8984,-0.8996,-0.8975,-0.8972,-0.8964,-0.8975,-0.9028,-0.9029,-0.9031,-0.9032,0,-0.8757,-0.8814,-0.8751,-0.8795,-0.8805,-0.875,-0.8787,-0.875,-0.8788,-0.8742,-0.8735,-0.8791,-0.8762,-0.8817,-0.8794,-0.8822,-0.8726,-0.8758,-0.8722,-0.8729,-0.8642,-0.8648,-0.8359,-0.8323,-0.8612,-0.8609,-0.8607,0,-0.8625,-0.8577,-0.8617,-0.8601,-0.8612,-0.8584,-0.8574,-0.8645,-0.8631,-0.8644,-0.8605,-0.8584,-0.857,-0.8519,-0.8556,-0.8538,-0.8567,-0.8467,-0.8565,-0.8545,-0.8561,-0.8562,-0.8556,-0.8445,-0.8442,-0.8439,-0.8437,0,-0.8382,-0.8413,-0.8397,-0.839,-0.8376,-0.8374,-0.8377,-0.8358,-0.8434,-0.8413,-0.8386,-0.8375,-0.8354,-0.8329,-0.8321,-0.8334,-0.8395,-0.8407,-0.8386,-0.8362,-0.8342,-0.8348,-0.8663,-0.8412,-0.8414,-0.8416,-0.8417,-0.8418,-0.8196,-0.8157,-0.8179,-0.8158,-0.8169,-0.817,-0.8138,-0.8171,-0.8151,-0.814,-0.8183,-0.8145,-0.816,-0.8155,-0.8162,-0.8131,-0.8175,-0.8146,-0.8138,-0.8128,-0.8113,-0.835,-0.813,-0.8131,-0.8132,-0.8132,-0.8133,0,-0.7954,-0.7974,-0.7954,-0.7957,-0.794,-0.8004,-0.8011,-0.7991,-0.7958,-0.7968,-0.7953,-0.7921,-0.7898,-0.7934,-0.7917,-0.7885,-0.7913,-0.7878,-0.7879,-0.788,-0.8076,-0.8094,-0.7856,-0.7856,-0.7856,-0.7856,-0.7856,-0.7856,-0.7827,-0.7764,-0.7797,-0.7739,-0.7759,-0.7725,-0.7722,-0.7723,-0.7731,-0.7692,-0.7675,-0.77,-0.7719,-0.7704,-0.7685,-0.7696,-0.7684,-0.7638,-0.7658,-0.784,-0.7867,-0.7892,-0.7909,-0.7636,-0.7636,-0.7464,-0.7462,-0.7461]}]]